"Pseudo-MPEC" for ZTF01a6

Created 2018 Oct 16 21:18:19 UT using Find_Orb

Click here for an explanation of pseudo-MPECs

 
 Astrometry: 
     ZTF01a6  C2018 10 09.28531023 06 02.73 +05 06 16.5          16.27gUNEOCPI41
     ZTF01a6  C2018 10 09.28565723 06 10.79 +05 07 47.5          16.27gUNEOCPI41
     ZTF01a6  C2018 10 09.28622323 06 24.12 +05 10 15.4          16.43gUNEOCPI41
     ZTF01a6  C2018 10 09.28657023 06 32.29 +05 11 47.7          16.43gUNEOCPI41

Station data:
(I41) Palomar Mountain--ZTF  (N33.357340 W116.859780)  US/California. 1.2-m
   f/2.44 Oschin Schmidt + CCD.

Orbital elements:  ZTF01a6
   Perigee 2018 Oct 9.077409 +/- 29.9 TT =  1:51:28 (JD 2458400.577409)
Epoch 2018 Oct  9.0 TT = JDT 2458400.5                        AutoNEOCP
q 33424.1079 +/- 4.21e+7            (J2000 equator)
H   31.2  G 0.15                    Peri.  287.53484 +/- 50
                                    Node   335.32023 +/- 60
e   1.9678912 +/- 0.23              Incl.   30.32046 +/- 6
From 4 observations 2018 Oct. 9 (1.8 min); mean residual 0".63
Residuals in arcseconds: 
181009 I41  .77+  .35+    181009 I41  .31-  .87-    
181009 I41  .94-  .14-    181009 I41  .47+  .67+    

Ephemerides (geocentric):
Date (UTC) HH   RA              Dec         delta   r     elong  mag " sig PA
---- -- -- --  -------------   -----------  ------ ------ -----  --- ---- ---
2018 10 16 21  01 11 32.830   +21 25 13.29  .01619 1.0126 167.1 23.0  55d   5
2018 10 16 22  01 11 34.737   +21 25 18.76  .01627 1.0126 167.1 23.0  55d   5
2018 10 16 23  01 11 36.627   +21 25 24.11  .01636 1.0127 167.1 23.0  55d   5
2018 10 17 00  01 11 38.501   +21 25 29.37  .01644 1.0128 167.1 23.0  55d   5
2018 10 17 01  01 11 40.360   +21 25 34.51  .01653 1.0128 167.1 23.0  55d   5
2018 10 17 02  01 11 42.203   +21 25 39.55  .01661 1.0129 167.1 23.0  55d   5
2018 10 17 03  01 11 44.031   +21 25 44.48  .01669 1.0130 167.2 23.0  55d   5
2018 10 17 04  01 11 45.844   +21 25 49.31  .01678 1.0131 167.2 23.1  55d   5
2018 10 17 05  01 11 47.643   +21 25 54.04  .01686 1.0131 167.2 23.1  55d   5
2018 10 17 06  01 11 49.427   +21 25 58.67  .01695 1.0132 167.2 23.1  55d   5
2018 10 17 07  01 11 51.197   +21 26 03.20  .01703 1.0133 167.2 23.1  55d   5
2018 10 17 08  01 11 52.952   +21 26 07.63  .01712 1.0133 167.2 23.1  55d   5
2018 10 17 09  01 11 54.694   +21 26 11.97  .01720 1.0134 167.2 23.1  55d   5
2018 10 17 10  01 11 56.423   +21 26 16.21  .01729 1.0135 167.2 23.1  55d   5
2018 10 17 11  01 11 58.138   +21 26 20.36  .01737 1.0135 167.2 23.1  55d   5
2018 10 17 12  01 11 59.840   +21 26 24.41  .01746 1.0136 167.2 23.1  55d   5
2018 10 17 13  01 12 01.529   +21 26 28.38  .01754 1.0137 167.2 23.2  55d   5
2018 10 17 14  01 12 03.205   +21 26 32.25  .01763 1.0138 167.2 23.2  55d   5
2018 10 17 15  01 12 04.869   +21 26 36.04  .01771 1.0138 167.2 23.2  55d   5
2018 10 17 16  01 12 06.520   +21 26 39.74  .01780 1.0139 167.2 23.2  55d   5
2018 10 17 17  01 12 08.159   +21 26 43.35  .01788 1.0140 167.2 23.2  55d   5
2018 10 17 18  01 12 09.786   +21 26 46.87  .01797 1.0140 167.2 23.2  55d   5
2018 10 17 19  01 12 11.401   +21 26 50.31  .01805 1.0141 167.2 23.2  55d   5
2018 10 17 20  01 12 13.005   +21 26 53.67  .01814 1.0142 167.2 23.2  55d   5
2018 10 17 21  01 12 14.597   +21 26 56.94  .01822 1.0143 167.2 23.2  55d   5
2018 10 17 22  01 12 16.178   +21 27 00.14  .01831 1.0143 167.2 23.2  55d   5
2018 10 17 23  01 12 17.748   +21 27 03.25  .01839 1.0144 167.2 23.3  55d   5
2018 10 18 00  01 12 19.307   +21 27 06.28  .01848 1.0145 167.2 23.3  55d   5
2018 10 18 01  01 12 20.855   +21 27 09.24  .01856 1.0145 167.2 23.3  55d   5
2018 10 18 02  01 12 22.392   +21 27 12.11  .01865 1.0146 167.2 23.3  55d   5
2018 10 18 03  01 12 23.919   +21 27 14.91  .01873 1.0147 167.2 23.3  55d   5
2018 10 18 04  01 12 25.435   +21 27 17.63  .01882 1.0148 167.3 23.3  55d   5
2018 10 18 05  01 12 26.942   +21 27 20.28  .01890 1.0148 167.3 23.3  55d   5
2018 10 18 06  01 12 28.438   +21 27 22.86  .01899 1.0149 167.3 23.3  55d   5
2018 10 18 07  01 12 29.925   +21 27 25.36  .01907 1.0150 167.3 23.3  55d   5
2018 10 18 08  01 12 31.401   +21 27 27.78  .01916 1.0150 167.3 23.3  55d   5
2018 10 18 09  01 12 32.868   +21 27 30.14  .01924 1.0151 167.3 23.4  55d   5
2018 10 18 10  01 12 34.326   +21 27 32.43  .01933 1.0152 167.3 23.4  55d   5
2018 10 18 11  01 12 35.774   +21 27 34.64  .01941 1.0153 167.3 23.4  55d   5
2018 10 18 12  01 12 37.214   +21 27 36.79  .01950 1.0153 167.3 23.4  55d   5
2018 10 18 13  01 12 38.644   +21 27 38.86  .01958 1.0154 167.3 23.4  55d   5
2018 10 18 14  01 12 40.065   +21 27 40.87  .01967 1.0155 167.3 23.4  55d   5
2018 10 18 15  01 12 41.477   +21 27 42.82  .01975 1.0155 167.3 23.4  55d   5
2018 10 18 16  01 12 42.881   +21 27 44.69  .01984 1.0156 167.3 23.4  55d   5
2018 10 18 17  01 12 44.276   +21 27 46.50  .01992 1.0157 167.3 23.4  55d   5
2018 10 18 18  01 12 45.662   +21 27 48.25  .02001 1.0158 167.3 23.4  55d   5
2018 10 18 19  01 12 47.040   +21 27 49.93  .02009 1.0158 167.3 23.4  55d   5
2018 10 18 20  01 12 48.410   +21 27 51.55  .02018 1.0159 167.3 23.5  55d   5